Time,TemperatureF,DewpointF,PressureIn,WindDirection,WindDirectionDegrees,WindSpeedMPH,WindSpeedGustMPH,Humidity,HourlyPrecipIn,Conditions,Clouds,dailyrainin,SoftwareType,DateUTC
2013-03-28 00:01:00,56.0,51.0,30.00,WSW,246,0.0,-999.0,82,-99.99,,,-99.99,,2013-03-28 07:01:00,
2013-03-28 00:12:00,56.0,51.0,30.00,WSW,246,0.0,-999.0,82,-99.99,,,-99.99,,2013-03-28 07:12:00,
2013-03-28 00:22:00,56.0,51.0,30.01,WSW,246,0.0,-999.0,83,-99.99,,,-99.99,,2013-03-28 07:22:00,
2013-03-28 00:32:00,55.0,50.0,30.01,WSW,246,0.0,-999.0,84,-99.99,,,-99.99,,2013-03-28 07:32:00,
2013-03-28 00:42:00,55.0,50.0,30.01,WSW,246,0.0,-999.0,84,-99.99,,,-99.99,,2013-03-28 07:42:00,
2013-03-28 00:52:00,55.0,50.0,30.01,WSW,246,0.0,-999.0,84,-99.99,,,-99.99,,2013-03-28 07:52:00,
2013-03-28 01:02:00,55.0,50.0,30.01,SSW,204,0.0,-999.0,84,-99.99,,,-99.99,,2013-03-28 08:02:00,
2013-03-28 01:11:00,55.0,50.0,30.01,SSW,204,0.0,-999.0,84,-99.99,,,-99.99,,2013-03-28 08:11:00,
2013-03-28 01:21:00,55.0,50.0,30.01,South,179,0.0,-999.0,84,-99.99,,,-99.99,,2013-03-28 08:21:00,
2013-03-28 01:32:00,55.0,50.0,30.01,South,179,0.0,-999.0,84,-99.99,,,-99.99,,2013-03-28 08:32:00,
2013-03-28 01:41:00,55.0,50.0,30.01,South,179,0.0,-999.0,84,-99.99,,,-99.99,,2013-03-28 08:41:00,
2013-03-28 01:52:00,55.0,50.0,30.01,South,179,0.0,-999.0,84,-99.99,,,-99.99,,2013-03-28 08:52:00,
2013-03-28 02:01:00,55.0,50.0,30.01,South,179,0.0,-999.0,84,-99.99,,,-99.99,,2013-03-28 09:01:00,
2013-03-28 02:11:00,55.0,50.0,30.01,South,179,0.0,-999.0,84,-99.99,,,-99.99,,2013-03-28 09:11:00,
2013-03-28 02:22:00,55.0,51.0,30.01,South,179,0.0,-999.0,85,-99.99,,,-99.99,,2013-03-28 09:22:00,
2013-03-28 02:32:00,55.0,51.0,30.01,South,179,0.0,-999.0,85,-99.99,,,-99.99,,2013-03-28 09:32:00,
2013-03-28 02:42:00,55.0,51.0,30.01,South,179,0.0,-999.0,85,-99.99,,,-99.99,,2013-03-28 09:42:00,
2013-03-28 02:52:00,55.0,51.0,30.01,South,179,0.0,-999.0,85,-99.99,,,-99.99,,2013-03-28 09:52:00,
2013-03-28 03:02:00,55.0,51.0,30.01,South,179,0.0,-999.0,85,-99.99,,,-99.99,,2013-03-28 10:02:00,
2013-03-28 03:12:00,55.0,51.0,30.01,South,179,0.0,-999.0,85,-99.99,,,-99.99,,2013-03-28 10:12:00,
2013-03-28 03:22:00,55.0,51.0,30.01,South,179,0.0,-999.0,85,-99.99,,,-99.99,,2013-03-28 10:22:00,
2013-03-28 03:32:00,55.0,51.0,30.01,South,179,0.0,-999.0,86,-99.99,,,-99.99,,2013-03-28 10:32:00,
2013-03-28 03:42:00,55.0,51.0,30.01,South,179,0.0,-999.0,86,-99.99,,,-99.99,,2013-03-28 10:42:00,
2013-03-28 03:53:00,55.0,51.0,30.01,South,179,0.0,-999.0,86,-99.99,,,-99.99,,2013-03-28 10:53:00,
2013-03-28 04:02:00,55.0,51.0,30.01,South,179,0.0,-999.0,86,-99.99,,,-99.99,,2013-03-28 11:02:00,
2013-03-28 04:12:00,55.0,51.0,30.01,South,179,0.0,-999.0,86,-99.99,,,-99.99,,2013-03-28 11:12:00,
2013-03-28 04:22:00,55.0,51.0,30.01,South,179,0.0,-999.0,86,-99.99,,,-99.99,,2013-03-28 11:22:00,
2013-03-28 04:32:00,55.0,51.0,30.01,South,179,0.0,-999.0,86,-99.99,,,-99.99,,2013-03-28 11:32:00,
2013-03-28 04:42:00,55.0,51.0,30.01,South,179,0.0,-999.0,86,-99.99,,,-99.99,,2013-03-28 11:42:00,
2013-03-28 04:52:00,55.0,51.0,30.01,South,179,0.0,-999.0,86,-99.99,,,-99.99,,2013-03-28 11:52:00,
2013-03-28 05:02:00,55.0,51.0,30.02,South,179,0.0,-999.0,86,-99.99,,,-99.99,,2013-03-28 12:02:00,
2013-03-28 05:11:00,55.0,51.0,30.02,South,179,0.0,-999.0,86,-99.99,,,-99.99,,2013-03-28 12:11:00,
2013-03-28 05:22:00,55.0,51.0,30.02,South,179,0.0,-999.0,86,-99.99,,,-99.99,,2013-03-28 12:22:00,
2013-03-28 05:32:00,55.0,51.0,30.02,South,179,0.0,-999.0,86,-99.99,,,-99.99,,2013-03-28 12:32:00,
2013-03-28 05:42:00,55.0,51.0,30.02,South,179,0.0,-999.0,86,-99.99,,,-99.99,,2013-03-28 12:42:00,
2013-03-28 05:52:00,55.0,51.0,30.01,South,179,0.0,-999.0,86,-99.99,,,-99.99,,2013-03-28 12:52:00,
2013-03-28 06:02:00,55.0,51.0,30.02,South,179,0.0,-999.0,86,-99.99,,,-99.99,,2013-03-28 13:02:00,
2013-03-28 06:11:00,55.0,51.0,30.02,South,179,0.0,-999.0,86,-99.99,,,-99.99,,2013-03-28 13:11:00,
2013-03-28 06:21:00,55.0,51.0,30.02,South,179,0.0,-999.0,87,-99.99,,,-99.99,,2013-03-28 13:21:00,
2013-03-28 06:31:00,55.0,51.0,30.02,South,179,0.0,-999.0,87,-99.99,,,-99.99,,2013-03-28 13:31:00,
2013-03-28 06:41:00,55.0,51.0,30.02,South,179,0.0,-999.0,87,-99.99,,,-99.99,,2013-03-28 13:41:00,
2013-03-28 06:52:00,55.0,51.0,30.02,South,179,0.0,-999.0,87,-99.99,,,-99.99,,2013-03-28 13:52:00,
2013-03-28 07:01:00,55.0,51.0,30.02,South,179,0.0,-999.0,87,-99.99,,,-99.99,,2013-03-28 14:01:00,
2013-03-28 07:11:00,55.0,51.0,30.02,South,179,0.0,-999.0,87,-99.99,,,-99.99,,2013-03-28 14:11:00,
2013-03-28 07:22:00,55.0,51.0,30.02,South,179,0.0,-999.0,87,-99.99,,,-99.99,,2013-03-28 14:22:00,
2013-03-28 07:32:00,55.0,51.0,30.02,South,179,0.0,-999.0,87,-99.99,,,-99.99,,2013-03-28 14:32:00,
2013-03-28 07:42:00,55.0,51.0,30.02,South,179,0.0,-999.0,87,-99.99,,,-99.99,,2013-03-28 14:42:00,
2013-03-28 07:52:00,55.0,51.0,30.03,South,179,0.0,-999.0,87,-99.99,,,-99.99,,2013-03-28 14:52:00,
2013-03-28 08:01:00,55.0,51.0,30.03,South,179,0.0,-999.0,87,-99.99,,,-99.99,,2013-03-28 15:01:00,
2013-03-28 08:11:00,55.0,51.0,30.03,South,179,0.0,-999.0,87,-99.99,,,-99.99,,2013-03-28 15:11:00,
2013-03-28 08:21:00,56.0,52.0,30.04,South,179,0.0,-999.0,86,-99.99,,,-99.99,,2013-03-28 15:21:00,
2013-03-28 08:32:00,56.0,52.0,30.04,South,179,0.0,-999.0,86,-99.99,,,-99.99,,2013-03-28 15:32:00,
2013-03-28 08:42:00,56.0,52.0,30.04,South,179,0.0,-999.0,86,-99.99,,,-99.99,,2013-03-28 15:42:00,
2013-03-28 08:53:00,57.0,52.0,30.05,South,179,0.0,-999.0,84,-99.99,,,-99.99,,2013-03-28 15:53:00,
2013-03-28 09:02:00,58.0,52.0,30.05,South,179,0.0,-999.0,81,-99.99,,,-99.99,,2013-03-28 16:02:00,
2013-03-28 09:12:00,58.0,52.0,30.05,South,179,0.0,-999.0,81,-99.99,,,-99.99,,2013-03-28 16:12:00,
2013-03-28 09:22:00,58.0,52.0,30.06,South,179,0.0,-999.0,80,-99.99,,,-99.99,,2013-03-28 16:22:00,
2013-03-28 09:32:00,59.0,52.0,30.07,South,179,0.0,-999.0,79,-99.99,,,-99.99,,2013-03-28 16:32:00,
2013-03-28 09:42:00,59.0,52.0,30.07,South,179,0.0,-999.0,79,-99.99,,,-99.99,,2013-03-28 16:42:00,
2013-03-28 09:52:00,59.0,52.0,30.07,South,179,0.0,-999.0,78,-99.99,,,-99.99,,2013-03-28 16:52:00,
2013-03-28 10:02:00,59.0,52.0,30.07,WSW,252,0.0,-999.0,78,-99.99,,,-99.99,,2013-03-28 17:02:00,
2013-03-28 10:12:00,59.0,52.0,30.07,WSW,252,0.0,-999.0,78,-99.99,,,-99.99,,2013-03-28 17:12:00,
2013-03-28 10:22:00,59.0,52.0,30.08,WSW,252,0.0,-999.0,77,-99.99,,,-99.99,,2013-03-28 17:22:00,
2013-03-28 10:32:00,60.0,53.0,30.08,West,269,1.0,-999.0,77,-99.99,,,-99.99,,2013-03-28 17:32:00,
2013-03-28 10:42:00,60.0,53.0,30.08,West,269,1.0,-999.0,77,-99.99,,,-99.99,,2013-03-28 17:42:00,
2013-03-28 10:52:00,61.0,53.0,30.08,West,265,0.0,-999.0,75,-99.99,,,-99.99,,2013-03-28 17:52:00,
2013-03-28 11:02:00,62.0,53.0,30.08,SE,128,1.0,-999.0,73,-99.99,,,-99.99,,2013-03-28 18:02:00,
2013-03-28 11:12:00,62.0,53.0,30.08,SE,128,1.0,-999.0,73,-99.99,,,-99.99,,2013-03-28 18:12:00,
2013-03-28 11:22:00,63.0,53.0,30.08,SW,221,0.0,-999.0,71,-99.99,,,-99.99,,2013-03-28 18:22:00,
2013-03-28 11:31:00,63.0,53.0,30.08,SW,221,0.0,-999.0,71,-99.99,,,-99.99,,2013-03-28 18:31:00,
2013-03-28 11:42:00,63.0,53.0,30.08,SW,221,0.0,-999.0,71,-99.99,,,-99.99,,2013-03-28 18:42:00,
2013-03-28 11:52:00,65.0,53.0,30.07,ESE,121,1.0,-999.0,66,-99.99,,,-99.99,,2013-03-28 18:52:00,
2013-03-28 12:01:00,66.0,54.0,30.07,SSW,210,1.0,-999.0,65,-99.99,,,-99.99,,2013-03-28 19:01:00,
2013-03-28 12:12:00,66.0,54.0,30.07,SSW,210,1.0,-999.0,65,-99.99,,,-99.99,,2013-03-28 19:12:00,
2013-03-28 12:22:00,66.0,53.0,30.07,SSE,161,1.0,-999.0,63,-99.99,,,-99.99,,2013-03-28 19:22:00,
2013-03-28 12:32:00,66.0,53.0,30.07,ESE,111,1.0,-999.0,63,-99.99,,,-99.99,,2013-03-28 19:32:00,
2013-03-28 12:42:00,66.0,53.0,30.07,ESE,111,1.0,-999.0,63,-99.99,,,-99.99,,2013-03-28 19:42:00,
2013-03-28 12:52:00,66.0,53.0,30.06,SSE,150,2.0,-999.0,62,-99.99,,,-99.99,,2013-03-28 19:52:00,
2013-03-28 13:02:00,66.0,53.0,30.06,SSE,150,2.0,-999.0,62,-99.99,,,-99.99,,2013-03-28 20:02:00,
2013-03-28 13:11:00,66.0,53.0,30.06,SSE,150,2.0,-999.0,62,-99.99,,,-99.99,,2013-03-28 20:11:00,
2013-03-28 13:22:00,68.0,53.0,30.06,SE,124,1.0,-999.0,59,-99.99,,,-99.99,,2013-03-28 20:22:00,
2013-03-28 13:32:00,68.0,53.0,30.06,ESE,117,0.0,-999.0,58,-99.99,,,-99.99,,2013-03-28 20:32:00,
2013-03-28 13:42:00,68.0,53.0,30.06,ESE,117,0.0,-999.0,58,-99.99,,,-99.99,,2013-03-28 20:42:00,
2013-03-28 13:53:00,68.0,52.0,30.06,SE,126,1.0,-999.0,57,-99.99,,,-99.99,,2013-03-28 20:53:00,
2013-03-28 14:02:00,68.0,53.0,30.05,NE,43,1.0,-999.0,58,-99.99,,,-99.99,,2013-03-28 21:02:00,
2013-03-28 14:11:00,68.0,53.0,30.05,NE,43,1.0,-999.0,58,-99.99,,,-99.99,,2013-03-28 21:11:00,
2013-03-28 14:22:00,68.0,53.0,30.05,WNW,298,1.0,-999.0,59,-99.99,,,-99.99,,2013-03-28 21:22:00,
2013-03-28 14:32:00,67.0,52.0,30.05,NE,44,1.0,-999.0,58,-99.99,,,-99.99,,2013-03-28 21:32:00,
2013-03-28 14:42:00,67.0,52.0,30.05,NE,44,1.0,-999.0,58,-99.99,,,-99.99,,2013-03-28 21:42:00,
2013-03-28 14:53:00,67.0,52.0,30.05,WNW,297,2.0,-999.0,58,-99.99,,,-99.99,,2013-03-28 21:53:00,
2013-03-28 15:02:00,68.0,53.0,30.04,WNW,291,1.0,-999.0,59,-99.99,,,-99.99,,2013-03-28 22:02:00,
2013-03-28 15:12:00,68.0,53.0,30.04,WNW,291,1.0,-999.0,59,-99.99,,,-99.99,,2013-03-28 22:12:00,
2013-03-28 15:22:00,68.0,52.0,30.04,NW,322,2.0,-999.0,56,-99.99,,,-99.99,,2013-03-28 22:22:00,
2013-03-28 15:32:00,68.0,52.0,30.03,ENE,62,2.0,-999.0,56,-99.99,,,-99.99,,2013-03-28 22:32:00,
2013-03-28 15:42:00,68.0,52.0,30.03,ENE,62,2.0,-999.0,56,-99.99,,,-99.99,,2013-03-28 22:42:00,
2013-03-28 15:52:00,69.0,53.0,30.03,North,5,2.0,-999.0,56,-99.99,,,-99.99,,2013-03-28 22:52:00,
2013-03-28 16:01:00,69.0,52.0,30.03,West,279,2.0,-999.0,55,-99.99,,,-99.99,,2013-03-28 23:01:00,
2013-03-28 16:12:00,69.0,52.0,30.03,West,279,2.0,-999.0,55,-99.99,,,-99.99,,2013-03-28 23:12:00,
2013-03-28 16:21:00,69.0,53.0,30.02,WNW,289,1.0,-999.0,56,-99.99,,,-99.99,,2013-03-28 23:21:00,
2013-03-28 16:32:00,69.0,52.0,30.02,NE,44,3.0,-999.0,54,-99.99,,,-99.99,,2013-03-28 23:32:00,
2013-03-28 16:42:00,69.0,52.0,30.02,NE,44,3.0,-999.0,54,-99.99,,,-99.99,,2013-03-28 23:42:00,
2013-03-28 16:52:00,70.0,52.0,30.02,WNW,289,3.0,-999.0,52,-99.99,,,-99.99,,2013-03-28 23:52:00,
2013-03-28 17:02:00,69.0,51.0,30.02,WNW,292,2.0,-999.0,52,-99.99,,,-99.99,,2013-03-29 00:02:00,
2013-03-28 17:11:00,69.0,51.0,30.02,WNW,292,2.0,-999.0,52,-99.99,,,-99.99,,2013-03-29 00:11:00,
2013-03-28 17:22:00,69.0,51.0,30.02,NW,313,2.0,-999.0,52,-99.99,,,-99.99,,2013-03-29 00:22:00,
2013-03-28 17:32:00,70.0,52.0,30.02,NW,307,2.0,-999.0,53,-99.99,,,-99.99,,2013-03-29 00:32:00,
2013-03-28 17:42:00,70.0,52.0,30.02,NW,307,2.0,-999.0,53,-99.99,,,-99.99,,2013-03-29 00:42:00,
2013-03-28 17:52:00,69.0,51.0,30.03,WNW,294,4.0,-999.0,53,-99.99,,,-99.99,,2013-03-29 00:52:00,
2013-03-28 18:02:00,69.0,52.0,30.02,NNW,348,2.0,-999.0,55,-99.99,,,-99.99,,2013-03-29 01:02:00,
2013-03-28 18:11:00,69.0,52.0,30.02,NNW,348,2.0,-999.0,55,-99.99,,,-99.99,,2013-03-29 01:11:00,
2013-03-28 18:22:00,69.0,52.0,30.03,WNW,302,3.0,-999.0,55,-99.99,,,-99.99,,2013-03-29 01:22:00,
2013-03-28 18:31:00,69.0,53.0,30.03,NE,36,3.0,-999.0,56,-99.99,,,-99.99,,2013-03-29 01:31:00,
2013-03-28 18:42:00,69.0,53.0,30.03,NE,36,3.0,-999.0,56,-99.99,,,-99.99,,2013-03-29 01:42:00,
2013-03-28 18:52:00,68.0,52.0,30.03,NW,315,3.0,-999.0,56,-99.99,,,-99.99,,2013-03-29 01:52:00,
2013-03-28 19:02:00,68.0,52.0,30.03,NW,311,3.0,-999.0,56,-99.99,,,-99.99,,2013-03-29 02:02:00,
2013-03-28 19:11:00,68.0,52.0,30.03,NW,311,3.0,-999.0,56,-99.99,,,-99.99,,2013-03-29 02:11:00,
2013-03-28 19:21:00,67.0,53.0,30.03,WNW,300,4.0,-999.0,61,-99.99,,,-99.99,,2013-03-29 02:21:00,
2013-03-28 19:32:00,66.0,53.0,30.03,NW,323,3.0,-999.0,64,-99.99,,,-99.99,,2013-03-29 02:32:00,
2013-03-28 19:41:00,66.0,53.0,30.03,NW,323,3.0,-999.0,64,-99.99,,,-99.99,,2013-03-29 02:41:00,
2013-03-28 19:52:00,65.0,53.0,30.03,NNW,333,3.0,-999.0,66,-99.99,,,-99.99,,2013-03-29 02:52:00,
2013-03-28 20:01:00,65.0,54.0,30.04,NW,319,3.0,-999.0,68,-99.99,,,-99.99,,2013-03-29 03:01:00,
2013-03-28 20:12:00,65.0,54.0,30.04,NW,319,3.0,-999.0,68,-99.99,,,-99.99,,2013-03-29 03:12:00,
2013-03-28 20:21:00,64.0,54.0,30.04,NW,315,2.0,-999.0,70,-99.99,,,-99.99,,2013-03-29 03:21:00,
2013-03-28 20:32:00,63.0,53.0,30.04,NNW,336,3.0,-999.0,71,-99.99,,,-99.99,,2013-03-29 03:32:00,
2013-03-28 20:42:00,63.0,53.0,30.04,NNW,336,3.0,-999.0,71,-99.99,,,-99.99,,2013-03-29 03:42:00,
2013-03-28 20:53:00,63.0,54.0,30.05,NW,314,2.0,-999.0,73,-99.99,,,-99.99,,2013-03-29 03:53:00,
2013-03-28 21:02:00,62.0,53.0,30.05,NNW,327,1.0,-999.0,73,-99.99,,,-99.99,,2013-03-29 04:02:00,
2013-03-28 21:12:00,62.0,53.0,30.05,NNW,327,1.0,-999.0,73,-99.99,,,-99.99,,2013-03-29 04:12:00,
2013-03-28 21:22:00,62.0,54.0,30.05,NNW,348,1.0,-999.0,74,-99.99,,,-99.99,,2013-03-29 04:22:00,
2013-03-28 21:32:00,61.0,53.0,30.06,North,355,1.0,-999.0,75,-99.99,,,-99.99,,2013-03-29 04:32:00,
2013-03-28 21:42:00,61.0,53.0,30.06,North,355,1.0,-999.0,75,-99.99,,,-99.99,,2013-03-29 04:42:00,
2013-03-28 21:52:00,61.0,53.0,30.06,NNW,342,1.0,-999.0,76,-99.99,,,-99.99,,2013-03-29 04:52:00,
2013-03-28 22:02:00,60.0,53.0,30.06,NNW,337,0.0,-999.0,77,-99.99,,,-99.99,,2013-03-29 05:02:00,
2013-03-28 22:12:00,60.0,53.0,30.06,NNW,337,0.0,-999.0,77,-99.99,,,-99.99,,2013-03-29 05:12:00,
2013-03-28 22:22:00,60.0,53.0,30.07,NNW,337,0.0,-999.0,77,-99.99,,,-99.99,,2013-03-29 05:22:00,
2013-03-28 22:32:00,59.0,52.0,30.07,NNW,337,0.0,-999.0,78,-99.99,,,-99.99,,2013-03-29 05:32:00,
2013-03-28 22:42:00,59.0,52.0,30.07,NNW,337,0.0,-999.0,78,-99.99,,,-99.99,,2013-03-29 05:42:00,
2013-03-28 22:52:00,59.0,52.0,30.07,NNW,336,0.0,-999.0,79,-99.99,,,-99.99,,2013-03-29 05:52:00,
2013-03-28 23:01:00,59.0,52.0,30.07,NNW,336,0.0,-999.0,79,-99.99,,,-99.99,,2013-03-29 06:01:00,
2013-03-28 23:12:00,59.0,52.0,30.07,NNW,336,0.0,-999.0,79,-99.99,,,-99.99,,2013-03-29 06:12:00,
2013-03-28 23:22:00,58.0,52.0,30.07,NNW,336,0.0,-999.0,80,-99.99,,,-99.99,,2013-03-29 06:22:00,
2013-03-28 23:32:00,58.0,53.0,30.07,NNW,336,0.0,-999.0,82,-99.99,,,-99.99,,2013-03-29 06:32:00,
2013-03-28 23:42:00,58.0,53.0,30.07,NNW,336,0.0,-999.0,82,-99.99,,,-99.99,,2013-03-29 06:42:00,
2013-03-28 23:52:00,58.0,53.0,30.07,NNW,336,0.0,-999.0,82,-99.99,,,-99.99,,2013-03-29 06:52:00,